TIME,DELAY(SENSOR),PRES,OXYGEN,RAWTEMP,T(OPTODE),TCPHASE,FLUOR,BETA(BETA700),BETA(BETA412),BETA(BETA440),CDOM,C(CSC),ED(ED412.40),ED(ED444.00),ED(ED489.70),ED(ED554.30),LU(LU411.80),LU(LU443.40),LU(LU489.60),LU(LU554.10),COMP,TILTX,TILTY,CHECK
1348112749,5806,876.0200195312500000,45.2365112304687500,661.0125122070312000,4.5946331024169920,54.2336196899414060,52,100,87,80,82,15258,2147756571,2147424630,2148007195,2147872402,2147638930,2147063552,2148260699,2147197129,163,5,13,63710
1348116345,5808,926.0800170898438000,46.9401206970214840,669.2694702148438000,4.3223252296447750,54.0878105163574200,53,101,89,79,80,15256,2147755657,2147423588,2148009563,2147873033,2147643181,2147060187,2148259428,2147197257,2999,5,13,39007
1348119945,5807,959.5900268554688000,47.8152885437011700,671.4467163085938000,4.2503948211669920,53.9908790588378900,52,99,86,79,81,15249,2147760868,2147421869,2148008000,2147873865,2147641929,2147058752,2148255872,2147196544,222,5,13,28693
1348123545,5809,975.1699829101562000,48.3836898803710940,674.3129882812500000,4.1556148529052730,53.9476890563964840,53,101,87,80,82,15255,2147760603,2147420845,2148008758,2147872676,2147643218,2147064950,2148259876,2147194742,229,4,13,20432
1348127145,5812,981.5300292968750000,48.3711204528808600,675.5667724609375000,4.1141281127929690,53.9672698974609400,53,98,88,79,80,15255,2147758537,2147424237,2148006637,2147874121,2147642697,2147062601,2148259026,2147194870,3427,5,13,60267
1348130745,5754,991.1400146484375000,48.1317405700683600,675.7589111328125000,4.1077728271484375,54.0050010681152340,53,97,88,80,83,15256,2147761069,2147422034,2148007424,2147873005,2147644278,2147059940,2148263762,2147201197,372,5,13,17459
1348134345,5809,987.8499755859375000,48.0931205749511700,675.1990966796875000,4.1262989044189450,54.0028114318847660,53,100,89,79,81,15255,2147759945,2147422217,2148006208,2147873682,2147642624,2147060461,2148257270,2147199040,899,5,13,50932
1348137945,5808,977.2399902343750000,47.9053688049316400,675.2745971679688000,4.1237998008728030,54.0307502746582000,53,100,89,79,81,15255,2147759323,2147424100,2148009316,2147870692,2147642157,2147057216,2148259730,2147199936,646,5,13,3154
1348141545,5809,977.0599975585938000,48.4085197448730500,677.5391845703125000,4.0488238334655760,53.9857101440429700,53,102,88,78,82,15256,2147764589,2147422985,2148010020,2147873088,2147645412,2147064018,2148261577,2147200804,799,4,13,40040
1348145145,5809,983.6799926757812000,48.8876304626464840,678.8229980468750000,4.0062961578369140,53.9335098266601560,52,97,86,79,80,15254,2147758061,2147422912,2148008109,2147874660,2147646381,2147063040,2148262765,2147198582,353,5,13,20310
1348148745,5809,975.6699829101562000,48.9610099792480500,678.5421142578125000,4.0156040191650390,53.9178009033203100,53,99,86,81,80,15255,2147763547,2147421266,2148009645,2147874642,2147640201,2147063954,2148262930,2147199131,874,5,13,62020
1348152345,5809,993.6900024414062000,48.5549201965332000,676.9057006835938000,4.0698051452636720,53.9588890075683600,53,98,89,79,81,15253,2147760603,2147425737,2148009234,2147872795,2147644461,2147059803,2148262436,2147199341,81,5,13,30323
1348155945,5809,993.9899902343750000,47.6819114685058600,675.9530029296875000,4.1013450622558590,54.0677909851074200,53,101,90,79,81,15254,2147763282,2147423186,2148007122,2147875520,2147646363,2147059849,2148262354,2147196132,412,5,13,39724
1348159545,5812,999.2500000000000000,47.9627304077148440,676.4376220703125000,4.0853037834167480,54.0303306579589840,53,98,88,78,83,15251,2147758573,2147421330,2148008969,2147875008,2147643053,2147064612,2148259181,2147196809,2899,4,13,60178
1348163145,5808,999.9199829101562000,47.4440307617187500,676.0051269531250000,4.0996208190917970,54.1060409545898440,53,98,85,80,81,15250,2147760768,2147421851,2148010596,2147878198,2147645421,2147062518,2148263762,2147196461,3343,5,13,15994
1348166745,5807,998.5000000000000000,47.6954498291015600,675.4041748046875000,4.1195092201232910,54.0575218200683600,53,102,86,80,82,15252,2147755986,2147422784,2148009901,2147876790,2147641005,2147065645,2148262710,2147193956,817,5,13,33128
1348170345,5809,989.9899902343750000,48.4013595581054700,677.9407958984375000,4.0355238914489750,53.9911308288574200,53,99,90,79,81,15252,2147759515,2147423579,2148007369,2147872493,2147642934,2147060562,2148260306,2147198235,424,4,13,16922
1348173945,5806,992.8499755859375000,48.4426803588867200,677.9055175781250000,4.0366921424865720,53.9838294982910160,52,99,86,78,82,15249,2147761408,2147424530,2148008045,2147872987,2147645796,2147061156,2148262226,2147198646,125,5,13,7601
1348177545,5808,1001.5000000000000000,47.6180496215820300,675.8972778320312000,4.1031880378723145,54.0754585266113300,53,98,88,80,81,15249,2147759268,2147423616,2148007195,2147876635,2147644708,2147063451,2148259446,2147196434,226,5,13,48186
1348181145,5811,1005.3900146484375000,47.7211914062500000,675.6080932617188000,4.1127619743347170,54.0600509643554700,53,101,90,78,82,15251,2147757312,2147423314,2148009078,2147875282,2147642057,2147058294,2148256201,2147197842,473,5,13,34023
1348184745,5808,993.7199707031250000,48.2653694152832000,677.2656860351562000,4.0578818321228030,54.0049400329589840,52,100,86,80,81,15250,2147757440,2147424466,2148007497,2147876745,2147642761,2147061558,2148261339,2147195931,115,4,13,294
1348188345,5810,981.9400024414062000,48.2652893066406250,678.0681762695312000,4.0313048362731930,54.0130386352539060,52,99,87,79,82,15250,2147762331,2147424950,2148010944,2147872429,2147643446,2147061860,2148255808,2147200969,140,4,13,59540
1348191945,5809,995.9400024414062000,49.3850708007812500,679.2760009765625000,3.9912850856781006,53.8698692321777340,53,98,87,79,81,15247,2147761380,2147427629,2148012096,2147877202,2147644717,2147060361,2148261412,2147195154,3270,5,13,52691
1348195545,5805,986.4899902343750000,48.1808815002441400,677.5767822265625000,4.0475788116455080,54.0187492370605500,53,103,90,79,81,15215,2147758528,2147423314,2148012187,2147876278,2147645293,2147060361,2148263058,2147195611,2831,4,13,63623
1348199145,5806,997.9799804687500000,47.9138793945312500,677.6868286132812000,4.0439381599426270,54.0590705871582000,51,99,87,80,82,15244,2147755209,2147424018,2148010861,2147874221,2147641024,2147060635,2148255625,2147199908,284,5,13,21980
1348202745,5809,1000.0300292968750000,48.1483917236328100,677.7998046875000000,4.0401940345764160,54.0237312316894500,53,101,87,79,83,15243,2147757622,2147423369,2148013010,2147877147,2147645238,2147066980,2148266450,2147198930,2833,4,13,50697
1348206345,5810,999.1500244140625000,47.7100715637207000,677.5280761718750000,4.0491919517517090,54.0847206115722660,53,100,93,79,82,15238,2147756260,2147426139,2148010779,2147877229,2147641261,2147063844,2148261933,2147196077,3520,5,13,61191
1348209945,5807,1011.3400268554688000,47.7849807739257800,676.1212158203125000,4.0957779884338380,54.0565299987793000,53,98,88,79,82,15237,2147754349,2147427638,2148010953,2147872420,2147643547,2147061878,2148264640,2147197988,108,5,13,7810
1348213545,5810,999.3400268554688000,47.3813896179199200,676.4262695312500000,4.0856781005859375,54.1147193908691400,52,97,87,80,83,15236,2147755821,2147424694,2148006720,2147874477,2147643428,2147063030,2148257261,2147198409,481,5,13,44940
1348217145,5808,1007.0599975585938000,47.2143287658691400,676.9608764648438000,4.0679779052734375,54.1481399536132800,53,100,89,79,81,15235,2147756214,2147425325,2148008923,2147874678,2147646784,2147060827,2148260480,2147193252,449,5,13,29501
1348220745,5811,1010.0100097656250000,47.1817703247070300,676.1010131835938000,4.0964469909667970,54.1423988342285160,52,98,87,78,82,15236,2147757787,2147423250,2148007753,2147873837,2147643492,2147060013,2148259858,2147198500,3492,4,13,3593
1348224345,5807,1001.2700195312500000,47.1703796386718750,676.1447143554688000,4.0949988365173340,54.1425094604492200,52,100,90,79,80,15235,2147761106,2147424283,2148012900,2147873161,2147645202,2147062253,2148262774,2147193920,3289,4,13,6785
1348227945,5809,994.1199951171875000,47.3278198242187500,676.2365722656250000,4.0919589996337890,54.1219291687011700,52,99,87,80,81,15236,2147761709,2147424237,2148009517,2147872557,2147644461,2147062683,2148256941,2147196516,239,5,13,55622
1348231545,5810,995.9899902343750000,47.4463081359863300,676.6132202148438000,4.0794892311096190,54.1098518371582000,53,100,88,78,81,15238,2147760987,2147422720,2148010770,2147872393,2147645083,2147061906,2148263817,2147192749,106,5,13,4748
1348235145,5809,989.1099853515625000,48.0071296691894500,678.6771850585938000,4.0111269950866700,54.0546607971191400,53,98,87,79,82,15237,2147761344,2147423286,2148008722,2147871058,2147644854,2147061686,2148260379,2147198409,3476,4,13,2584
1348238745,5807,998.5399780273438000,49.3351707458496100,680.8737182617188000,3.9383220672607420,53.8980102539062500,53,99,87,79,82,15238,2147757284,2147425508,2148010240,2147872009,2147648777,2147058203,2148260480,2147199469,3325,5,13,14290
1348242345,5808,998.0000000000000000,49.2839813232421900,680.4578247070312000,3.9521141052246094,53.8979606628418000,53,99,87,78,81,15235,2147758747,2147423314,2148010669,2147874221,2147645467,2147062198,2148262345,2147195218,3252,5,13,41632
1348245945,5805,1007.1500244140625000,48.1241989135742200,677.3024291992188000,4.0566692352294920,54.0202102661132800,52,102,91,79,81,15229,2147758884,2147422774,2148010806,2147874770,2147643254,2147063990,2148262125,2147195437,3420,4,13,55109
1348249545,5811,998.9600219726562000,47.4216308593750000,676.7714233398438000,4.0742530822753910,54.1147613525390600,52,100,90,81,80,15227,2147756160,2147421997,2148010203,2147873435,2147642962,2147059593,2148259145,2147197796,45,5,13,56103
1348253145,5810,1004.2600097656250000,48.5769195556640600,678.5963134765625000,4.0138068199157715,53.9729003906250000,52,102,88,80,82,15229,2147759085,2147426806,2148012434,2147871926,2147644379,2147060644,2148257435,2147194779,145,4,13,32833
1348256455,5809,1000.6300048828125000,47.8719291687011700,677.5156860351562000,4.0496039390563965,54.0571708679199200,53,99,87,80,81,15242,2147759158,2147423936,2148010029,2147874240,2147643318,2147060278,2148263707,2147197513,3342,4,13,9702
